Terminal Aerodrome Forecast
Issued by NWS State College, PA

Home | Current Version | Previous Version | Text Only | Print | Product List | Glossary On
Versions: 1 2 3 4 5 6 7 8 9 10 11 12 13 14 15 16 17 18 19 20 21 22 23 24 25 26 27 28 29 30 31 32 33 34 35 36 37 38 39 40 41 42 43 44 45 46 47 48 49 50
000
FTUS41 KCTP 301720
TAFIPT
TAF
KIPT 301720Z 3018/3118 00000KT P6SM SCT040 BKN100
     FM302000 25005KT P6SM VCSH BKN040
     FM310000 22002KT P6SM SCT040 BKN120
     FM310300 00000KT 4SM BR SCT025 OVC035
     FM311300 24006KT 6SM HZ BKN035=

USA.gov is the U.S. government's official web portal to all federal, state and local government web resources and services.